Regional Weather Roundup
Issued by NWS

Home | Current Version | Previous Version | Graphics & Text | Print | Product List | Glossary On
Versions: 1 2 3 4 5 6 7 8 9 10 11 12 13 14 15 16 17 18 19 20 21 22 23 24 25 26 27 28 29 30 31 32 33 34 35 36 37 38 39 40 41 42 43 44 45 46 47 48 49 50
742
ASUS45 KBOU 181010
RWRCO

WEATHER ROUNDUP FOR COLORADO
NATIONAL WEATHER SERVICE DENVER/BOULDER CO
300 AM MST SUN FEB 18 2018

NOTE: "FAIR" INDICATES FEW OR NO CLOUDS BELOW 12000 FEET WITH NO
SIGNIFICANT WEATHER AND/OR OBSTRUCTIONS TO VISIBILITY.

COZ001>005-013-030-031-181100-
...NORTHWEST COLORADO...

CITY           SKY/WX    TMP DP  RH WIND       PRES   REMARKS
CRAIG          FAIR      39  15  37 W15       29.76F
HAYDEN         FAIR      27  15  61 CALM      29.78F
MEEKER         FAIR      40  14  34 S18G30    29.76F
RANGELY        FAIR      24  18  76 CALM      29.77F
RABBIT EARS PA FAIR      23  12  63 SW12G22   29.80F WCI  12
STEAMBOAT SPGS FAIR      19  13  79 CALM      29.76F
WALDEN         FAIR      30   9  40 S13G20    29.75F WCI  20
$$

COZ006>008-011-181100-
...WEST CENTRAL VALLEYS...

CITY           SKY/WX    TMP DP  RH WIND       PRES   REMARKS
GRAND JUNCTION FAIR      30  22  72 SE6       29.88F WCI  24
MONTROSE       FAIR      29  17  61 SE9       29.94F WCI  20
EAGLE          FAIR      23  14  68 E8        29.87F WCI  14
RIFLE          FAIR      22  17  81 CALM      29.89F
DELTA          FAIR      29  14  54 CALM      29.93S
NUCLA          NOT AVBL
$$

COZ017>023-064>068-181100-
...SOUTHWEST COLORADO...

CITY           SKY/WX    TMP DP  RH WIND       PRES   REMARKS
DURANGO        FAIR      24  17  74 N6        30.05F WCI  17
CORTEZ         FAIR      19  14  81 CALM      30.02F
PAGOSA SPRINGS FAIR      17  12  80 CALM      30.07F
TELLURIDE      FAIR      33   2  27 SE3       30.01F
WOLF CREEK PAS FAIR      18  10  73 S25G38    30.08F WCI  -1
$$

COZ009-010-012-014-032>034-037-058>063-181100-
...CENTRAL COLORADO...

CITY           SKY/WX    TMP DP  RH WIND       PRES   REMARKS
ASPEN          FAIR      20  11  68 SE8       29.86F WCI  10
BUENA VISTA    FAIR      33   6  32 S12G22    29.91R WCI  24
COPPER MTN     LGT SNOW  28   3  34 SW15G38   29.90F WCI  17
BERTHOUD PASS  FAIR      21  10  63 W48G66    29.80F WCI  -1
COTTONWOOD PAS FAIR      36  -2  20 NW10G23   29.90F
GUNNISON       FAIR      17  12  80 CALM      30.00S
GRANBY         FAIR      30   9  41 W14       29.81S WCI  19
KREMMLING      FAIR      37  10  32 W23G29    29.78F
LEADVILLE      FAIR      22   2  42 NE9       29.87F WCI  12
MONARCH PASS   FAIR      19   1  45 SW32      30.07S WCI   0
SALIDA         FAIR      36   9  32 S12G18    29.99S
SUNLIGHT       FAIR      19   9  63 SW23G39     N/A  WCI   2
WILKERSON PASS FAIR      23  -2  33 SW22G33   29.88F WCI   8
$$

COZ069>075-181100-
...SAN LUIS VALLEY/SANGRE DE CRISTO MOUNTAINS...

CITY           SKY/WX    TMP DP  RH WIND       PRES   REMARKS
ALAMOSA        FAIR      31  13  47 S14       29.98F WCI  21
DEL NORTE      FAIR      34  12  39 W16G24    29.98F WCI  24
LA VETA PASS   FAIR      28  10  47 S36G53    29.99F WCI  12
SAGUACHE       FAIR      14   1  57 NW6       30.00F WCI   5
$$

COZ035-036-038>040-181100-
...NORTHERN COLORADO FRONT RANGE...

CITY           SKY/WX    TMP DP  RH WIND       PRES   REMARKS
DENVER INTL AP FAIR      42  11  28 SW10      29.62F
AURORA         PTCLDY    49   8  18 S12       29.64F
FRONT RANGE AP FAIR      41  13  32 S15       29.64F
ERIE MUNI ARPT FAIR      32  12  43 SW7       29.67F WCI  26
BOULDER MUN AP FAIR      43  10  26 S6        29.60F
CENTENNIAL     FAIR      43   9  24 SW14      29.64F
BROOMFIELD     FAIR      37  10  32 CALM      29.63F
FORT COLLINS   FAIR      38  13  35 S9        29.61F
LONGMONT       FAIR      35  13  40 CALM      29.63F
$$

COZ041-046-047-076>085-087-088-181100-
...PIKES PEAK/PALMER DIVIDE AND SOUTHERN FOOTHILLS...

CITY           SKY/WX    TMP DP  RH WIND       PRES   REMARKS
COLO. SPRINGS  MOCLDY    38  14  37 VRB5G17   29.75F
A. F. ACADEMY  FAIR      26  10  49 N5        29.73F WCI  21
SCHRIEVER AFB  NOT AVBL
CHEYENNE MTN   FAIR      38  11  33 CALM      29.69F
ELLICOTT         N/A    N/A N/A N/A S20       29.74F
FALCON         FAIR      32  10  39 MISG      29.76F
FORT CARSON    FAIR      39  14  36 S14       29.73F
LIMON          FAIR      38  12  34 SW5       29.72F
MONUMENT HILL  FAIR      43   7  22 SW24G35   29.74F
CANON CITY     CLEAR     46  16  29 W12G22    29.75F
WALSENBURG     NOT AVBL
TRINIDAD       FAIR      43  13  29 W15       29.81F
$$

COZ042>045-048>051-090-091-181100-
...NORTHEAST COLORADO...

CITY           SKY/WX    TMP DP  RH WIND       PRES   REMARKS
GREELEY ARPT   FAIR      25  17  72 N7        29.62F WCI  17
AKRON          FAIR      35  16  45 S13       29.64F WCI  26
BURLINGTON     FAIR      36  18  48 S12       29.70F
WRAY           FAIR      32  19  59 SW6       29.66F WCI  26
YUMA           NOT AVBL
STERLING       FAIR      32  19  59 SW8       29.62F WCI  25
HOLYOKE        FAIR      32  21  64 S5        29.65F WCI  27
FORT MORGAN    FAIR      33  11  41 CALM      29.64F
$$

COZ086-089-092>099-181100-
...SOUTHEAST COLORADO...

CITY           SKY/WX    TMP DP  RH WIND       PRES   REMARKS
PUEBLO         FAIR      25  21  85 NW7       29.74F WCI  17
LA JUNTA       FAIR      40  18  41 NW5       29.75F
LAMAR          FAIR      39  22  50 S5        29.74F
SPRINGFIELD      N/A     38  27  64 S23G33    29.81F
$$




USA.gov is the U.S. government's official web portal to all federal, state and local government web resources and services.